Regional Weather Roundup
Issued by NWS Lake Charles, LA

Home | Current Version | Previous Version | Text Only | Print | Product List | Glossary On
Versions: 1 2 3 4 5 6 7 8 9 10 11 12 13 14 15 16 17 18 19 20 21 22 23 24 25 26 27
000
ASUS44 KLCH 251010
RWRLCH
REGIONAL WEATHER ROUNDUP
NATIONAL WEATHER SERVICE LAKE CHARLES LA
400 AM CST SAT NOV 25 2017

Note: "fair" indicates few or no clouds below 12,000 feet with no
significant weather and/or obstructions to visibility.


ACROSS SOUTHEAST TEXAS

CITY           SKY/WX    TMP DP  RH WIND       PRES   REMARKS
BEAUMONT       CLEAR     48  47  96 NE3       29.96R
BEAUMONT CITY  FAIR      47  44  90 CALM      29.97S
ORANGE         SUNNY     43  43 100 CALM      29.98S FOG
JASPER         CLEAR     42  42  99 CALM      29.97F FOG
$$

ACROSS CENTRAL LOUISIANA

CITY           SKY/WX    TMP DP  RH WIND       PRES   REMARKS
LEESVILLE      CLEAR     42  41  94 CALM      29.96F
FULLERTON      FAIR      39  38  96 CALM      29.94F
ALEXANDRIA INT CLEAR     40  38  93 SE3       29.96F
ESLER FIELD    CLEAR     36  35  96 CALM      29.97F
DERIDDER       FAIR      41  40  95 CALM      29.99F
OAKDALE        SUNNY     35  34  95 CALM      29.98S
OPELOUSAS      FAIR      39  38  97 CALM      29.99F
$$

ACROSS SOUTHWEST AND SOUTH CENTRAL LOUISIANA

CITY           SKY/WX    TMP DP  RH WIND       PRES   REMARKS
SULPHUR        SUNNY     47  47  99 CALM      29.98S
LAKE CHARLES   CLEAR     48  47  96 CALM      29.98S
CHENNAULT INT  CLEAR     43  40  89 CALM      29.99R
CAMERON PHI    SUNNY     52  50  93 NE3       29.98S
DEQUINCY       FAIR      41  40  97 CALM      29.98F
JENNINGS       FAIR      44  42  92 CALM      29.99S
LAFAYETTE      CLEAR     43  41  93 CALM      29.99F
NEW IBERIA     PTCLDY    40  37  89 CALM      30.00S FOG
ABBEVILLE      FAIR      39  39 100 CALM      29.99F
PATTERSON      PTCLDY    40  39  97 NE3       30.01R FOG
SALT POINT       N/A      1  32 100 CALM      29.99S
$$

SELECTED SITES ACROSS THE REGION

CITY           SKY/WX    TMP DP  RH WIND       PRES   REMARKS
HOUSTON BUSH   PTCLDY    49  48  97 CALM      29.94R
HOUSTON HOBBY  PTCLDY    53  52  96 CALM      29.93R
GALVESTON      CLEAR     63  61  93 S6        29.94R
COLLEGE STAT   CLEAR     51  48  89 SE6       29.91S
CONROE         CLEAR     42  42 100 CALM      29.94S
HUNTSVILLE     CLEAR     52  46  80 S5        29.92S
LUFKIN         CLEAR     45  43  93 SE5       29.93F
SHREVEPORT     MOCLDY    44  42  93 E3        29.93S
MONROE         MOCLDY    45  39  79 SW5       29.97F
NATCHEZ MS     PTCLDY    39  36  89 CALM      29.98F
BATON ROUGE    CLEAR     37  35  92 CALM      30.00F
N.O. INTL ARPT PTCLDY    40  39  97 CALM      30.01R
SLIDELL        PTCLDY    36  33  89 CALM      30.01R
$$

MARINE REPORTS

STATION/POSITION TIME  SKY/WX   TEMP    WIND        PRES    VSBY
                                AIR SEA DIR/SP/G
                 (UTC)          (F)     (DEG/KT/KT) (MB)    (MI)
BUOY 30 S HIGH I 0850            69 69  210/ 10/ 10 1013.7
WVE H/P(F/S)=  2/ 3

SEA RIM ST PARK  1000            61     100/  5/  5 1014.8R
PORT ARTHUR      0948            58 63   70/  3/  3 1014.5R
SABINE PASS N    0948            55 66   20/  2/  3 1015.9S
TEXAS POINT      NOT AVBL
CALCASIEU PASS   0948            62 64   80/  3/  3 1013.8R
LK CHARLES BEACH 0948            49 66              1014.7R
MARSH ISLAND     0900            59                   N/A
FRESH WATER LOCK 0948            53 64   70/  4/  5 1015.2R
AMERADA PASS     0948            50 57  100/  3/  4 1015.6S
$$




USA.gov is the U.S. government's official web portal to all federal, state and local government web resources and services.